Time,TemperatureF,DewpointF,PressureIn,WindDirection,WindDirectionDegrees,WindSpeedMPH,WindSpeedGustMPH,Humidity,HourlyPrecipIn,Conditions,Clouds,dailyrainin,SoftwareType,DateUTC
2016-12-07 00:03:00,39.4,38.4,29.81,North,355,0.0,0.0,96,0.00,,,0.00,Wunderground v.1.15,2016-12-07 05:03:00,
2016-12-07 00:09:00,39.4,38.4,29.81,NNW,342,0.0,1.0,96,0.00,,,0.00,Wunderground v.1.15,2016-12-07 05:09:00,
2016-12-07 00:14:00,39.4,38.4,29.82,NNW,340,0.0,1.0,96,0.00,,,0.00,Wunderground v.1.15,2016-12-07 05:14:00,
2016-12-07 00:20:00,39.4,38.4,29.82,NNW,338,0.0,1.0,96,0.00,,,0.00,Wunderground v.1.15,2016-12-07 05:20:00,
2016-12-07 00:25:00,39.3,38.3,29.81,NNW,338,0.0,0.0,96,0.00,,,0.00,Wunderground v.1.15,2016-12-07 05:25:00,
2016-12-07 00:31:00,39.3,38.3,29.81,NNW,338,0.0,0.0,96,0.00,,,0.00,Wunderground v.1.15,2016-12-07 05:31:00,
2016-12-07 00:37:00,39.3,38.3,29.81,NNW,338,0.0,1.0,96,0.00,,,0.00,Wunderground v.1.15,2016-12-07 05:37:00,
2016-12-07 00:42:00,39.2,38.2,29.80,NNW,331,0.0,1.0,96,0.00,,,0.00,Wunderground v.1.15,2016-12-07 05:42:00,
2016-12-07 00:48:00,39.1,38.1,29.80,NNW,331,0.0,2.0,96,0.00,,,0.00,Wunderground v.1.15,2016-12-07 05:48:00,
2016-12-07 00:53:00,39.0,38.0,29.80,NNW,333,1.0,1.0,96,0.00,,,0.00,Wunderground v.1.15,2016-12-07 05:53:00,
2016-12-07 00:59:00,38.9,37.9,29.80,NNW,333,0.0,1.0,96,0.00,,,0.00,Wunderground v.1.15,2016-12-07 05:59:00,
2016-12-07 01:05:00,38.9,37.9,29.80,NNW,333,0.0,0.0,96,0.00,,,0.00,Wunderground v.1.15,2016-12-07 06:05:00,
2016-12-07 01:10:00,38.8,37.8,29.81,NNW,333,0.0,1.0,96,0.00,,,0.00,Wunderground v.1.15,2016-12-07 06:10:00,
2016-12-07 01:15:00,38.8,37.8,29.82,NNW,333,0.0,1.0,96,0.00,,,0.00,Wunderground v.1.15,2016-12-07 06:15:00,
2016-12-07 01:21:00,38.7,37.7,29.83,NW,311,1.0,2.0,96,0.00,,,0.00,Wunderground v.1.15,2016-12-07 06:21:00,
2016-12-07 01:26:00,38.6,37.6,29.83,NW,307,1.0,2.0,96,0.00,,,0.00,Wunderground v.1.15,2016-12-07 06:26:00,
2016-12-07 01:32:00,38.5,37.5,29.83,NW,307,1.0,1.0,96,0.00,,,0.00,Wunderground v.1.15,2016-12-07 06:32:00,
2016-12-07 01:37:00,38.5,37.5,29.84,NW,325,1.0,2.0,96,0.00,,,0.00,Wunderground v.1.15,2016-12-07 06:37:00,
2016-12-07 01:43:00,38.4,37.4,29.84,NW,323,1.0,3.0,96,0.00,,,0.00,Wunderground v.1.15,2016-12-07 06:43:00,
2016-12-07 01:48:00,38.3,37.3,29.84,NNW,329,1.0,3.0,96,0.00,,,0.00,Wunderground v.1.15,2016-12-07 06:48:00,
2016-12-07 01:54:00,38.2,37.2,29.85,North,11,1.0,2.0,96,0.00,,,0.00,Wunderground v.1.15,2016-12-07 06:54:00,
2016-12-07 01:59:00,38.1,37.1,29.85,NW,322,1.0,4.0,96,0.00,,,0.00,Wunderground v.1.15,2016-12-07 06:59:00,
2016-12-07 02:05:00,37.9,36.9,29.86,NW,313,1.0,2.0,96,0.00,,,0.00,Wunderground v.1.15,2016-12-07 07:05:00,
2016-12-07 02:11:00,37.9,36.9,29.86,NW,311,1.0,1.0,96,0.00,,,0.00,Wunderground v.1.15,2016-12-07 07:11:00,
2016-12-07 02:17:00,37.9,36.9,29.87,NW,323,2.0,3.0,96,0.00,,,0.00,Wunderground v.1.15,2016-12-07 07:17:00,
2016-12-07 02:23:00,37.8,36.8,29.86,NW,315,2.0,4.0,96,0.00,,,0.00,Wunderground v.1.15,2016-12-07 07:23:00,
2016-12-07 02:29:00,37.7,36.7,29.86,NW,318,2.0,4.0,96,0.00,,,0.00,Wunderground v.1.15,2016-12-07 07:29:00,
2016-12-07 02:34:00,37.6,36.6,29.86,WNW,299,2.0,3.0,96,0.00,,,0.00,Wunderground v.1.15,2016-12-07 07:34:00,
2016-12-07 02:40:00,37.5,36.5,29.86,NNE,19,2.0,3.0,96,0.00,,,0.00,Wunderground v.1.15,2016-12-07 07:40:00,
2016-12-07 02:46:00,37.4,36.4,29.85,NNW,341,2.0,5.0,96,0.00,,,0.00,Wunderground v.1.15,2016-12-07 07:46:00,
2016-12-07 02:57:00,37.4,36.4,29.85,NW,319,1.0,2.0,96,0.00,,,0.00,Wunderground v.1.15,2016-12-07 07:57:00,
2016-12-07 03:03:00,37.3,36.3,29.86,WNW,302,2.0,3.0,96,0.00,,,0.01,Wunderground v.1.15,2016-12-07 08:03:00,
2016-12-07 03:09:00,37.3,36.5,29.87,NW,304,2.0,6.0,97,0.00,,,0.01,Wunderground v.1.15,2016-12-07 08:09:00,
2016-12-07 03:14:00,37.3,36.5,29.87,WNW,300,2.0,5.0,97,0.00,,,0.01,Wunderground v.1.15,2016-12-07 08:14:00,
2016-12-07 03:20:00,37.3,36.5,29.88,NNW,340,2.0,5.0,97,0.00,,,0.01,Wunderground v.1.15,2016-12-07 08:20:00,
2016-12-07 03:26:00,37.4,36.6,29.88,NNE,20,2.0,3.0,97,0.00,,,0.01,Wunderground v.1.15,2016-12-07 08:26:00,
2016-12-07 03:32:00,37.4,36.6,29.89,NW,309,2.0,4.0,97,0.00,,,0.01,Wunderground v.1.15,2016-12-07 08:32:00,
2016-12-07 03:38:00,37.4,36.6,29.88,NNW,331,2.0,4.0,97,0.00,,,0.01,Wunderground v.1.15,2016-12-07 08:38:00,
2016-12-07 03:44:00,37.5,36.7,29.88,North,355,2.0,2.0,97,0.00,,,0.01,Wunderground v.1.15,2016-12-07 08:44:00,
2016-12-07 03:49:00,37.5,36.7,29.89,NNW,327,1.0,2.0,97,0.00,,,0.01,Wunderground v.1.15,2016-12-07 08:49:00,
2016-12-07 03:55:00,37.5,36.7,29.88,NW,317,1.0,1.0,97,0.00,,,0.01,Wunderground v.1.15,2016-12-07 08:55:00,
2016-12-07 04:01:00,37.5,36.7,29.89,NNW,344,1.0,1.0,97,0.00,,,0.01,Wunderground v.1.15,2016-12-07 09:01:00,
2016-12-07 04:07:00,37.6,36.8,29.89,NW,306,1.0,2.0,97,0.00,,,0.01,Wunderground v.1.15,2016-12-07 09:07:00,
2016-12-07 04:13:00,37.6,36.8,29.89,NNW,330,1.0,2.0,97,0.00,,,0.01,Wunderground v.1.15,2016-12-07 09:13:00,
2016-12-07 04:18:00,37.6,36.8,29.89,NNE,27,1.0,3.0,97,0.00,,,0.01,Wunderground v.1.15,2016-12-07 09:18:00,
2016-12-07 04:24:00,37.6,36.8,29.89,NNE,21,1.0,2.0,97,0.00,,,0.01,Wunderground v.1.15,2016-12-07 09:24:00,
2016-12-07 04:29:00,37.7,36.9,29.89,NW,307,1.0,3.0,97,0.00,,,0.01,Wunderground v.1.15,2016-12-07 09:29:00,
2016-12-07 04:35:00,37.7,36.9,29.89,NW,311,1.0,1.0,97,0.00,,,0.01,Wunderground v.1.15,2016-12-07 09:35:00,
2016-12-07 04:40:00,37.7,36.9,29.89,NW,311,1.0,2.0,97,0.00,,,0.01,Wunderground v.1.15,2016-12-07 09:40:00,
2016-12-07 04:46:00,37.7,36.9,29.88,NW,311,1.0,1.0,97,0.00,,,0.01,Wunderground v.1.15,2016-12-07 09:46:00,
2016-12-07 04:52:00,37.7,36.9,29.89,NW,311,0.0,1.0,97,0.00,,,0.01,Wunderground v.1.15,2016-12-07 09:52:00,
2016-12-07 04:57:00,37.8,37.0,29.88,NW,321,1.0,1.0,97,0.00,,,0.01,Wunderground v.1.15,2016-12-07 09:57:00,
2016-12-07 05:03:00,37.8,37.0,29.88,NW,321,1.0,1.0,97,0.00,,,0.01,Wunderground v.1.15,2016-12-07 10:03:00,
2016-12-07 05:09:00,37.8,37.0,29.89,NW,321,1.0,2.0,97,0.00,,,0.01,Wunderground v.1.15,2016-12-07 10:09:00,
2016-12-07 05:15:00,37.8,37.0,29.89,NW,321,1.0,1.0,97,0.00,,,0.01,Wunderground v.1.15,2016-12-07 10:15:00,
2016-12-07 05:20:00,37.9,37.1,29.90,NW,321,0.0,1.0,97,0.00,,,0.01,Wunderground v.1.15,2016-12-07 10:20:00,
2016-12-07 05:26:00,37.9,37.1,29.90,NW,321,0.0,0.0,97,0.00,,,0.01,Wunderground v.1.15,2016-12-07 10:26:00,
2016-12-07 05:31:00,37.9,37.1,29.90,NW,321,0.0,0.0,97,0.00,,,0.01,Wunderground v.1.15,2016-12-07 10:31:00,
2016-12-07 05:37:00,37.9,37.1,29.90,NW,321,0.0,0.0,97,0.00,,,0.01,Wunderground v.1.15,2016-12-07 10:37:00,
2016-12-07 05:43:00,37.9,37.1,29.91,NW,321,0.0,1.0,97,0.00,,,0.01,Wunderground v.1.15,2016-12-07 10:43:00,
2016-12-07 05:54:00,38.0,37.2,29.92,NW,311,1.0,2.0,97,0.00,,,0.01,Wunderground v.1.15,2016-12-07 10:54:00,
2016-12-07 06:01:00,37.9,37.1,29.93,NW,311,0.0,0.0,97,0.00,,,0.01,Wunderground v.1.15,2016-12-07 11:01:00,
2016-12-07 06:07:00,38.0,37.2,29.93,NW,311,0.0,0.0,97,0.00,,,0.01,Wunderground v.1.15,2016-12-07 11:07:00,
2016-12-07 06:13:00,38.0,37.2,29.93,NW,311,0.0,0.0,97,0.00,,,0.01,Wunderground v.1.15,2016-12-07 11:13:00,
2016-12-07 06:19:00,38.0,37.2,29.93,NW,311,0.0,1.0,97,0.00,,,0.01,Wunderground v.1.15,2016-12-07 11:19:00,
2016-12-07 06:24:00,38.0,37.2,29.93,NW,313,0.0,1.0,97,0.00,,,0.01,Wunderground v.1.15,2016-12-07 11:24:00,
2016-12-07 06:30:00,37.9,37.1,29.93,NW,313,0.0,1.0,97,0.00,,,0.01,Wunderground v.1.15,2016-12-07 11:30:00,
2016-12-07 06:36:00,37.9,37.1,29.94,NW,313,0.0,0.0,97,0.00,,,0.01,Wunderground v.1.15,2016-12-07 11:36:00,
2016-12-07 06:41:00,37.9,37.1,29.94,NW,313,0.0,1.0,97,0.00,,,0.01,Wunderground v.1.15,2016-12-07 11:41:00,
2016-12-07 06:47:00,37.9,37.1,29.94,NW,313,0.0,1.0,97,0.00,,,0.01,Wunderground v.1.15,2016-12-07 11:47:00,
2016-12-07 06:52:00,37.8,37.0,29.94,NW,313,0.0,0.0,97,0.00,,,0.01,Wunderground v.1.15,2016-12-07 11:52:00,
2016-12-07 06:58:00,37.8,37.0,29.94,NW,313,0.0,0.0,97,0.00,,,0.01,Wunderground v.1.15,2016-12-07 11:58:00,
2016-12-07 07:04:00,37.7,36.9,29.94,NW,313,0.0,0.0,97,0.00,,,0.01,Wunderground v.1.15,2016-12-07 12:04:00,
2016-12-07 07:09:00,37.7,36.9,29.94,NW,313,0.0,0.0,97,0.00,,,0.01,Wunderground v.1.15,2016-12-07 12:09:00,
2016-12-07 07:15:00,37.7,36.9,29.95,NW,313,0.0,0.0,97,0.00,,,0.01,Wunderground v.1.15,2016-12-07 12:15:00,
2016-12-07 07:21:00,37.7,36.9,29.95,NW,311,0.0,0.0,97,0.00,,,0.01,Wunderground v.1.15,2016-12-07 12:21:00,
2016-12-07 07:26:00,37.7,36.9,29.96,NW,311,0.0,3.0,97,0.00,,,0.01,Wunderground v.1.15,2016-12-07 12:26:00,
2016-12-07 07:32:00,37.8,37.0,29.95,NW,316,1.0,1.0,97,0.00,,,0.01,Wunderground v.1.15,2016-12-07 12:32:00,
2016-12-07 07:38:00,38.0,37.2,29.95,NW,315,1.0,2.0,97,0.00,,,0.01,Wunderground v.1.15,2016-12-07 12:38:00,
2016-12-07 07:43:00,38.2,37.4,29.96,NW,314,1.0,1.0,97,0.00,,,0.01,Wunderground v.1.15,2016-12-07 12:43:00,
2016-12-07 07:49:00,38.3,37.5,29.96,NW,314,1.0,2.0,97,0.00,,,0.01,Wunderground v.1.15,2016-12-07 12:49:00,
2016-12-07 07:55:00,38.4,37.6,29.96,NW,313,1.0,1.0,97,0.00,,,0.01,Wunderground v.1.15,2016-12-07 12:55:00,
2016-12-07 08:01:00,38.5,37.7,29.96,NW,313,0.0,0.0,97,0.00,,,0.01,Wunderground v.1.15,2016-12-07 13:01:00,
2016-12-07 08:07:00,38.5,37.7,29.97,NW,311,1.0,2.0,97,0.00,,,0.01,Wunderground v.1.15,2016-12-07 13:07:00,
2016-12-07 08:13:00,38.6,37.8,29.97,NW,317,1.0,1.0,97,0.00,,,0.01,Wunderground v.1.15,2016-12-07 13:13:00,
2016-12-07 08:18:00,38.6,37.8,29.97,NW,317,1.0,1.0,97,0.00,,,0.01,Wunderground v.1.15,2016-12-07 13:18:00,
2016-12-07 08:24:00,38.7,37.7,29.98,WNW,288,1.0,2.0,96,0.00,,,0.01,Wunderground v.1.15,2016-12-07 13:24:00,
2016-12-07 08:30:00,38.7,37.9,29.98,NW,309,1.0,2.0,97,0.00,,,0.01,Wunderground v.1.15,2016-12-07 13:30:00,
2016-12-07 08:35:00,38.8,38.0,29.97,NW,313,1.0,1.0,97,0.00,,,0.01,Wunderground v.1.15,2016-12-07 13:35:00,
2016-12-07 08:41:00,39.0,38.2,29.97,NNW,344,1.0,1.0,97,0.00,,,0.01,Wunderground v.1.15,2016-12-07 13:41:00,
2016-12-07 08:47:00,39.1,38.1,29.97,NNW,343,1.0,2.0,96,0.00,,,0.01,Wunderground v.1.15,2016-12-07 13:47:00,
2016-12-07 08:52:00,39.2,38.2,29.97,NW,314,1.0,3.0,96,0.00,,,0.01,Wunderground v.1.15,2016-12-07 13:52:00,
2016-12-07 08:58:00,39.3,38.3,29.98,WNW,303,1.0,3.0,96,0.00,,,0.01,Wunderground v.1.15,2016-12-07 13:58:00,
2016-12-07 09:03:00,39.4,38.4,29.98,NW,304,1.0,1.0,96,0.00,,,0.01,Wunderground v.1.15,2016-12-07 14:03:00,
2016-12-07 09:09:00,39.5,38.5,29.98,West,281,1.0,3.0,96,0.00,,,0.01,Wunderground v.1.15,2016-12-07 14:09:00,
2016-12-07 09:15:00,39.5,38.5,29.99,West,267,1.0,1.0,96,0.00,,,0.01,Wunderground v.1.15,2016-12-07 14:15:00,
2016-12-07 09:20:00,39.6,38.3,29.99,NNW,327,1.0,4.0,95,0.00,,,0.01,Wunderground v.1.15,2016-12-07 14:20:00,
2016-12-07 09:26:00,39.6,38.3,30.00,NW,322,2.0,3.0,95,0.00,,,0.01,Wunderground v.1.15,2016-12-07 14:26:00,
2016-12-07 09:31:00,39.7,38.4,30.00,NW,311,1.0,2.0,95,0.00,,,0.01,Wunderground v.1.15,2016-12-07 14:31:00,
2016-12-07 09:37:00,39.8,38.5,30.00,NNW,339,2.0,5.0,95,0.00,,,0.01,Wunderground v.1.15,2016-12-07 14:37:00,
2016-12-07 09:43:00,40.0,38.7,30.00,NW,309,2.0,3.0,95,0.00,,,0.01,Wunderground v.1.15,2016-12-07 14:43:00,
2016-12-07 09:48:00,40.3,39.0,30.00,WNW,292,2.0,3.0,95,0.00,,,0.01,Wunderground v.1.15,2016-12-07 14:48:00,
2016-12-07 09:54:00,40.6,39.0,30.00,NW,304,3.0,3.0,94,0.00,,,0.01,Wunderground v.1.15,2016-12-07 14:54:00,
2016-12-07 09:59:00,40.8,39.2,30.00,NNW,334,3.0,4.0,94,0.00,,,0.01,Wunderground v.1.15,2016-12-07 14:59:00,
2016-12-07 10:05:00,41.1,39.0,30.00,NW,306,3.0,4.0,92,0.00,,,0.01,Wunderground v.1.15,2016-12-07 15:05:00,
2016-12-07 10:11:00,41.2,39.1,30.00,West,265,4.0,6.0,92,0.00,,,0.01,Wunderground v.1.15,2016-12-07 15:11:00,
2016-12-07 10:22:00,41.1,38.7,30.00,WNW,301,4.0,4.0,91,0.00,,,0.01,Wunderground v.1.15,2016-12-07 15:22:00,
2016-12-07 10:28:00,41.0,38.3,30.00,NW,323,4.0,6.0,90,0.00,,,0.01,Wunderground v.1.15,2016-12-07 15:28:00,
2016-12-07 10:33:00,41.1,38.7,30.00,NW,317,4.0,8.0,91,0.00,,,0.01,Wunderground v.1.15,2016-12-07 15:33:00,
2016-12-07 10:39:00,41.1,38.4,30.00,WNW,293,4.0,8.0,90,0.00,,,0.01,Wunderground v.1.15,2016-12-07 15:39:00,
2016-12-07 10:45:00,41.3,38.6,29.99,WNW,297,4.0,4.0,90,0.00,,,0.01,Wunderground v.1.15,2016-12-07 15:45:00,
2016-12-07 10:50:00,41.3,38.0,30.00,West,268,4.0,7.0,88,0.00,,,0.01,Wunderground v.1.15,2016-12-07 15:50:00,
2016-12-07 10:56:00,41.6,38.3,29.99,NNW,337,4.0,6.0,88,0.00,,,0.01,Wunderground v.1.15,2016-12-07 15:56:00,
2016-12-07 11:01:00,42.0,38.7,29.99,NW,323,4.0,4.0,88,0.00,,,0.01,Wunderground v.1.15,2016-12-07 16:01:00,
2016-12-07 11:07:00,42.6,38.7,29.98,NW,321,3.0,5.0,86,0.00,,,0.01,Wunderground v.1.15,2016-12-07 16:07:00,
2016-12-07 11:12:00,42.7,38.2,29.98,NNW,331,4.0,4.0,84,0.00,,,0.01,Wunderground v.1.15,2016-12-07 16:12:00,
2016-12-07 11:17:00,42.8,37.7,29.98,NNW,340,5.0,7.0,82,0.00,,,0.01,Wunderground v.1.15,2016-12-07 16:17:00,
2016-12-07 11:23:00,43.2,37.4,29.99,NW,323,4.0,9.0,80,0.00,,,0.01,Wunderground v.1.15,2016-12-07 16:23:00,
2016-12-07 11:29:00,43.4,37.0,29.99,NW,315,4.0,9.0,78,0.00,,,0.01,Wunderground v.1.15,2016-12-07 16:29:00,
2016-12-07 11:35:00,43.6,36.9,29.99,NNW,327,4.0,8.0,77,0.00,,,0.01,Wunderground v.1.15,2016-12-07 16:35:00,
2016-12-07 11:40:00,43.7,36.6,29.99,NW,311,4.0,8.0,76,0.00,,,0.01,Wunderground v.1.15,2016-12-07 16:40:00,
2016-12-07 11:46:00,43.6,36.2,29.99,WNW,296,4.0,7.0,75,0.00,,,0.01,Wunderground v.1.15,2016-12-07 16:46:00,
2016-12-07 11:51:00,43.5,35.8,29.99,WNW,296,4.0,4.0,74,0.00,,,0.01,Wunderground v.1.15,2016-12-07 16:51:00,
2016-12-07 11:57:00,43.3,35.2,29.99,WNW,289,4.0,8.0,73,0.00,,,0.01,Wunderground v.1.15,2016-12-07 16:57:00,
2016-12-07 12:03:00,43.1,34.7,29.99,NW,312,4.0,9.0,72,0.00,,,0.01,Wunderground v.1.15,2016-12-07 17:03:00,
2016-12-07 12:08:00,43.1,35.0,29.99,NW,322,4.0,9.0,73,0.00,,,0.01,Wunderground v.1.15,2016-12-07 17:08:00,
2016-12-07 12:14:00,43.7,35.3,29.99,NNE,17,3.0,7.0,72,0.00,,,0.01,Wunderground v.1.15,2016-12-07 17:14:00,
2016-12-07 12:19:00,43.9,34.7,29.99,NNW,339,3.0,8.0,70,0.00,,,0.01,Wunderground v.1.15,2016-12-07 17:19:00,
2016-12-07 12:25:00,44.0,35.2,29.99,NW,314,4.0,9.0,71,0.00,,,0.01,Wunderground v.1.15,2016-12-07 17:25:00,
2016-12-07 12:30:00,44.3,35.5,29.99,West,268,4.0,9.0,71,0.00,,,0.01,Wunderground v.1.15,2016-12-07 17:30:00,
2016-12-07 12:36:00,44.5,35.7,29.99,WNW,300,3.0,4.0,71,0.00,,,0.01,Wunderground v.1.15,2016-12-07 17:36:00,
2016-12-07 12:42:00,44.8,35.6,29.99,SW,234,3.0,3.0,70,0.00,,,0.01,Wunderground v.1.15,2016-12-07 17:42:00,
2016-12-07 12:47:00,45.0,35.4,29.98,West,270,3.0,3.0,69,0.00,,,0.01,Wunderground v.1.15,2016-12-07 17:47:00,
2016-12-07 12:53:00,45.0,35.4,29.98,WSW,240,4.0,8.0,69,0.00,,,0.01,Wunderground v.1.15,2016-12-07 17:53:00,
2016-12-07 12:58:00,45.1,35.9,29.98,SW,225,4.0,10.0,70,0.00,,,0.01,Wunderground v.1.15,2016-12-07 17:58:00,
2016-12-07 13:04:00,45.3,35.7,29.98,West,266,3.0,6.0,69,0.00,,,0.01,Wunderground v.1.15,2016-12-07 18:04:00,
2016-12-07 13:09:00,45.5,35.5,29.98,WNW,300,3.0,6.0,68,0.00,,,0.01,Wunderground v.1.15,2016-12-07 18:09:00,
2016-12-07 13:15:00,45.5,34.4,29.98,NW,305,3.0,8.0,65,0.00,,,0.01,Wunderground v.1.15,2016-12-07 18:15:00,
2016-12-07 13:21:00,45.3,34.2,29.99,NW,305,4.0,4.0,65,0.00,,,0.01,Wunderground v.1.15,2016-12-07 18:21:00,
2016-12-07 13:26:00,45.3,34.6,30.00,NW,304,3.0,4.0,66,0.00,,,0.01,Wunderground v.1.15,2016-12-07 18:26:00,
2016-12-07 13:32:00,45.1,34.0,29.99,WNW,297,3.0,5.0,65,0.00,,,0.01,Wunderground v.1.15,2016-12-07 18:32:00,
2016-12-07 13:38:00,45.0,35.1,30.00,NNW,333,3.0,5.0,68,0.00,,,0.01,Wunderground v.1.15,2016-12-07 18:38:00,
2016-12-07 13:43:00,45.2,34.9,29.99,West,262,3.0,3.0,67,0.00,,,0.01,Wunderground v.1.15,2016-12-07 18:43:00,
2016-12-07 13:49:00,45.2,34.5,30.00,WSW,255,4.0,5.0,66,0.00,,,0.01,Wunderground v.1.15,2016-12-07 18:49:00,
2016-12-07 13:54:00,45.4,35.5,29.99,WSW,252,4.0,6.0,68,0.00,,,0.01,Wunderground v.1.15,2016-12-07 18:54:00,
2016-12-07 14:01:00,45.5,34.4,29.99,NW,307,4.0,4.0,65,0.00,,,0.01,Wunderground v.1.15,2016-12-07 19:01:00,
2016-12-07 14:07:00,45.5,34.0,29.99,WNW,284,3.0,5.0,64,0.00,,,0.01,Wunderground v.1.15,2016-12-07 19:07:00,
2016-12-07 14:13:00,45.3,34.2,29.99,WNW,296,3.0,5.0,65,0.00,,,0.01,Wunderground v.1.15,2016-12-07 19:13:00,
2016-12-07 14:18:00,45.0,33.9,29.99,NW,323,3.0,5.0,65,0.00,,,0.01,Wunderground v.1.15,2016-12-07 19:18:00,
2016-12-07 14:24:00,45.0,33.9,29.99,NW,304,3.0,7.0,65,0.00,,,0.01,Wunderground v.1.15,2016-12-07 19:24:00,
2016-12-07 14:29:00,45.1,34.4,30.00,WSW,247,3.0,7.0,66,0.00,,,0.01,Wunderground v.1.15,2016-12-07 19:29:00,
2016-12-07 14:35:00,45.2,33.3,29.99,NW,312,4.0,5.0,63,0.00,,,0.01,Wunderground v.1.15,2016-12-07 19:35:00,
2016-12-07 14:41:00,45.3,34.2,29.99,WSW,244,3.0,8.0,65,0.00,,,0.01,Wunderground v.1.15,2016-12-07 19:41:00,
2016-12-07 14:46:00,45.2,33.3,29.99,NW,313,4.0,8.0,63,0.00,,,0.01,Wunderground v.1.15,2016-12-07 19:46:00,
2016-12-07 14:52:00,45.1,33.2,30.00,WNW,298,4.0,5.0,63,0.00,,,0.01,Wunderground v.1.15,2016-12-07 19:52:00,
2016-12-07 14:57:00,45.3,33.4,30.00,WSW,242,3.0,5.0,63,0.00,,,0.01,Wunderground v.1.15,2016-12-07 19:57:00,
2016-12-07 15:03:00,45.5,33.2,30.00,SW,215,3.0,3.0,62,0.00,,,0.01,Wunderground v.1.15,2016-12-07 20:03:00,
2016-12-07 15:09:00,45.6,32.9,30.00,WNW,292,3.0,5.0,61,0.00,,,0.01,Wunderground v.1.15,2016-12-07 20:09:00,
2016-12-07 15:14:00,45.6,32.9,30.00,NW,304,3.0,4.0,61,0.00,,,0.01,Wunderground v.1.15,2016-12-07 20:14:00,
2016-12-07 15:20:00,45.3,33.0,30.00,NW,307,2.0,4.0,62,0.00,,,0.01,Wunderground v.1.15,2016-12-07 20:20:00,
2016-12-07 15:25:00,45.5,32.8,30.00,WSW,250,2.0,4.0,61,0.00,,,0.01,Wunderground v.1.15,2016-12-07 20:25:00,
2016-12-07 15:31:00,45.6,32.9,30.00,WNW,302,3.0,3.0,61,0.00,,,0.01,Wunderground v.1.15,2016-12-07 20:31:00,
2016-12-07 15:37:00,45.5,32.4,30.00,WSW,243,3.0,7.0,60,0.00,,,0.01,Wunderground v.1.15,2016-12-07 20:37:00,
2016-12-07 15:43:00,45.4,32.3,30.01,WSW,238,4.0,4.0,60,0.00,,,0.01,Wunderground v.1.15,2016-12-07 20:43:00,
2016-12-07 15:48:00,45.2,32.5,30.01,WNW,296,3.0,6.0,61,0.00,,,0.01,Wunderground v.1.15,2016-12-07 20:48:00,
2016-12-07 15:54:00,44.9,32.7,30.01,WSW,241,3.0,4.0,62,0.00,,,0.01,Wunderground v.1.15,2016-12-07 20:54:00,
2016-12-07 16:02:00,44.3,32.5,30.01,West,271,2.0,2.0,63,0.00,,,0.01,Wunderground v.1.15,2016-12-07 21:02:00,
2016-12-07 16:07:00,44.0,32.6,30.01,West,268,1.0,2.0,64,0.00,,,0.01,Wunderground v.1.15,2016-12-07 21:07:00,
2016-12-07 16:13:00,43.5,32.5,30.01,WSW,252,1.0,2.0,65,0.00,,,0.01,Wunderground v.1.15,2016-12-07 21:13:00,
2016-12-07 16:19:00,43.2,32.6,30.01,WSW,252,1.0,2.0,66,0.00,,,0.01,Wunderground v.1.15,2016-12-07 21:19:00,
2016-12-07 16:25:00,43.0,33.2,30.01,WSW,252,0.0,1.0,68,0.00,,,0.01,Wunderground v.1.15,2016-12-07 21:25:00,
2016-12-07 16:30:00,42.8,33.0,30.01,WSW,252,0.0,1.0,68,0.00,,,0.01,Wunderground v.1.15,2016-12-07 21:30:00,
2016-12-07 16:36:00,42.4,32.2,30.02,WSW,252,1.0,2.0,67,0.00,,,0.01,Wunderground v.1.15,2016-12-07 21:36:00,
2016-12-07 16:41:00,42.1,32.3,30.01,WSW,252,1.0,2.0,68,0.00,,,0.01,Wunderground v.1.15,2016-12-07 21:41:00,
2016-12-07 16:47:00,41.7,31.9,30.01,WSW,252,0.0,2.0,68,0.00,,,0.01,Wunderground v.1.15,2016-12-07 21:47:00,
2016-12-07 16:53:00,41.4,31.6,30.01,WSW,252,0.0,0.0,68,0.00,,,0.01,Wunderground v.1.15,2016-12-07 21:53:00,
2016-12-07 16:58:00,41.1,31.3,30.01,WSW,252,0.0,0.0,68,0.00,,,0.01,Wunderground v.1.15,2016-12-07 21:58:00,
2016-12-07 17:04:00,40.8,31.4,30.02,WSW,252,0.0,0.0,69,0.00,,,0.01,Wunderground v.1.15,2016-12-07 22:04:00,
2016-12-07 17:10:00,40.5,31.5,30.02,WSW,252,0.0,0.0,70,0.00,,,0.01,Wunderground v.1.15,2016-12-07 22:10:00,
2016-12-07 17:15:00,40.2,31.2,30.02,WSW,252,0.0,0.0,70,0.00,,,0.01,Wunderground v.1.15,2016-12-07 22:15:00,
2016-12-07 17:21:00,40.1,31.4,30.02,WSW,252,0.0,0.0,71,0.00,,,0.01,Wunderground v.1.15,2016-12-07 22:21:00,
2016-12-07 17:27:00,39.9,31.6,30.02,WSW,252,0.0,0.0,72,0.00,,,0.01,Wunderground v.1.15,2016-12-07 22:27:00,
2016-12-07 17:32:00,39.5,31.2,30.02,WSW,252,0.0,0.0,72,0.00,,,0.01,Wunderground v.1.15,2016-12-07 22:32:00,
2016-12-07 17:38:00,39.2,31.3,30.01,WSW,252,0.0,0.0,73,0.00,,,0.01,Wunderground v.1.15,2016-12-07 22:38:00,
2016-12-07 17:44:00,39.0,31.4,30.02,WSW,252,0.0,0.0,74,0.00,,,0.01,Wunderground v.1.15,2016-12-07 22:44:00,
2016-12-07 17:50:00,38.8,31.6,30.02,WSW,252,0.0,0.0,75,0.00,,,0.01,Wunderground v.1.15,2016-12-07 22:50:00,
2016-12-07 17:56:00,38.4,31.5,30.02,WSW,252,0.0,0.0,76,0.00,,,0.01,Wunderground v.1.15,2016-12-07 22:56:00,
2016-12-07 18:02:00,38.0,31.1,30.02,WSW,252,0.0,0.0,76,0.00,,,0.01,Wunderground v.1.15,2016-12-07 23:02:00,
2016-12-07 18:07:00,37.6,31.0,30.03,WSW,252,0.0,0.0,77,0.00,,,0.01,Wunderground v.1.15,2016-12-07 23:07:00,
2016-12-07 18:13:00,37.2,31.3,30.03,WSW,252,0.0,0.0,79,0.00,,,0.01,Wunderground v.1.15,2016-12-07 23:13:00,
2016-12-07 18:18:00,37.0,31.4,30.03,WSW,252,0.0,0.0,80,0.00,,,0.01,Wunderground v.1.15,2016-12-07 23:18:00,
2016-12-07 18:24:00,36.9,31.0,30.03,WSW,252,0.0,0.0,79,0.00,,,0.01,Wunderground v.1.15,2016-12-07 23:24:00,
2016-12-07 18:29:00,37.0,31.1,30.03,WSW,252,0.0,0.0,79,0.00,,,0.01,Wunderground v.1.15,2016-12-07 23:29:00,
2016-12-07 18:35:00,36.8,31.2,30.03,WSW,252,0.0,0.0,80,0.00,,,0.01,Wunderground v.1.15,2016-12-07 23:35:00,
2016-12-07 18:41:00,36.5,30.9,30.03,WSW,252,0.0,0.0,80,0.00,,,0.01,Wunderground v.1.15,2016-12-07 23:41:00,
2016-12-07 18:46:00,36.3,30.7,30.03,WSW,252,0.0,0.0,80,0.00,,,0.01,Wunderground v.1.15,2016-12-07 23:46:00,
2016-12-07 18:52:00,36.4,30.5,30.03,WSW,252,0.0,0.0,79,0.00,,,0.01,Wunderground v.1.15,2016-12-07 23:52:00,
2016-12-07 18:58:00,36.6,31.0,30.03,WSW,252,0.0,0.0,80,0.00,,,0.01,Wunderground v.1.15,2016-12-07 23:58:00,
2016-12-07 19:03:00,36.6,31.0,30.03,WSW,252,0.0,0.0,80,0.00,,,0.01,Wunderground v.1.15,2016-12-08 00:03:00,
2016-12-07 19:09:00,36.3,30.7,30.03,WSW,252,0.0,0.0,80,0.00,,,0.01,Wunderground v.1.15,2016-12-08 00:09:00,
2016-12-07 19:20:00,36.0,30.7,30.03,WSW,252,0.0,0.0,81,0.00,,,0.01,Wunderground v.1.15,2016-12-08 00:20:00,
2016-12-07 19:26:00,35.9,30.6,30.03,WSW,252,0.0,0.0,81,0.00,,,0.01,Wunderground v.1.15,2016-12-08 00:26:00,
2016-12-07 19:31:00,35.6,30.6,30.03,WSW,252,0.0,0.0,82,0.00,,,0.01,Wunderground v.1.15,2016-12-08 00:31:00,
2016-12-07 19:37:00,35.2,30.6,30.03,WSW,252,0.0,0.0,83,0.00,,,0.01,Wunderground v.1.15,2016-12-08 00:37:00,
2016-12-07 19:43:00,35.1,30.5,30.02,WSW,252,0.0,0.0,83,0.00,,,0.01,Wunderground v.1.15,2016-12-08 00:43:00,
2016-12-07 19:48:00,34.9,30.3,30.02,WSW,252,0.0,0.0,83,0.00,,,0.01,Wunderground v.1.15,2016-12-08 00:48:00,
2016-12-07 19:54:00,34.5,29.9,30.02,WSW,252,0.0,0.0,83,0.00,,,0.01,Wunderground v.1.15,2016-12-08 00:54:00,
2016-12-07 19:59:00,34.2,29.9,30.02,WSW,252,0.0,0.0,84,0.00,,,0.01,Wunderground v.1.15,2016-12-08 00:59:00,
2016-12-07 20:05:00,33.9,29.9,30.02,WSW,252,0.0,0.0,85,0.00,,,0.01,Wunderground v.1.15,2016-12-08 01:05:00,
2016-12-07 20:10:00,33.7,29.7,30.02,WSW,252,0.0,0.0,85,0.00,,,0.01,Wunderground v.1.15,2016-12-08 01:10:00,
2016-12-07 20:16:00,33.4,29.7,30.02,WSW,252,0.0,0.0,86,0.00,,,0.01,Wunderground v.1.15,2016-12-08 01:16:00,
2016-12-07 20:21:00,33.4,29.9,30.02,WSW,252,0.0,0.0,87,0.00,,,0.01,Wunderground v.1.15,2016-12-08 01:21:00,
2016-12-07 20:27:00,33.3,29.8,30.03,WSW,252,0.0,0.0,87,0.00,,,0.01,Wunderground v.1.15,2016-12-08 01:27:00,
2016-12-07 20:33:00,33.2,29.5,30.03,WSW,252,0.0,0.0,86,0.00,,,0.01,Wunderground v.1.15,2016-12-08 01:33:00,
2016-12-07 20:39:00,32.9,29.2,30.03,WSW,252,0.0,0.0,86,0.00,,,0.01,Wunderground v.1.15,2016-12-08 01:39:00,
2016-12-07 20:44:00,32.6,28.9,30.02,WSW,252,0.0,0.0,86,0.00,,,0.01,Wunderground v.1.15,2016-12-08 01:44:00,
2016-12-07 20:50:00,32.3,28.9,30.03,WSW,252,0.0,0.0,87,0.00,,,0.01,Wunderground v.1.15,2016-12-08 01:50:00,
2016-12-07 20:55:00,32.1,28.9,30.03,WSW,252,0.0,0.0,88,0.00,,,0.01,Wunderground v.1.15,2016-12-08 01:55:00,
2016-12-07 21:01:00,32.0,29.1,30.03,WSW,252,0.0,0.0,89,0.00,,,0.01,Wunderground v.1.15,2016-12-08 02:01:00,
2016-12-07 21:07:00,32.1,29.5,30.03,WSW,252,0.0,0.0,90,0.00,,,0.01,Wunderground v.1.15,2016-12-08 02:07:00,
2016-12-07 21:12:00,32.4,29.5,30.03,WSW,252,0.0,0.0,89,0.00,,,0.01,Wunderground v.1.15,2016-12-08 02:12:00,
2016-12-07 21:17:00,32.5,29.3,30.03,WSW,252,0.0,0.0,88,0.00,,,0.01,Wunderground v.1.15,2016-12-08 02:17:00,
2016-12-07 21:23:00,32.5,29.6,30.02,WSW,252,0.0,0.0,89,0.00,,,0.01,Wunderground v.1.15,2016-12-08 02:23:00,
2016-12-07 21:28:00,32.5,29.3,30.02,WSW,252,0.0,0.0,88,0.00,,,0.01,Wunderground v.1.15,2016-12-08 02:28:00,
2016-12-07 21:34:00,32.4,29.2,30.03,WSW,252,0.0,0.0,88,0.00,,,0.01,Wunderground v.1.15,2016-12-08 02:34:00,
2016-12-07 21:40:00,32.4,29.2,30.03,WSW,252,0.0,0.0,88,0.00,,,0.01,Wunderground v.1.15,2016-12-08 02:40:00,
2016-12-07 21:45:00,32.7,29.3,30.03,WSW,252,0.0,0.0,87,0.00,,,0.01,Wunderground v.1.15,2016-12-08 02:45:00,
2016-12-07 21:51:00,33.0,29.3,30.03,WSW,252,0.0,0.0,86,0.00,,,0.01,Wunderground v.1.15,2016-12-08 02:51:00,
2016-12-07 21:56:00,33.4,29.1,30.03,WSW,252,0.0,0.0,84,0.00,,,0.01,Wunderground v.1.15,2016-12-08 02:56:00,
2016-12-07 22:01:00,34.1,29.5,30.03,WSW,252,0.0,0.0,83,0.00,,,0.01,Wunderground v.1.15,2016-12-08 03:01:00,
2016-12-07 22:07:00,34.9,29.4,30.03,WSW,253,0.0,1.0,80,0.00,,,0.01,Wunderground v.1.15,2016-12-08 03:07:00,
2016-12-07 22:12:00,35.3,28.8,30.03,WSW,254,0.0,1.0,77,0.00,,,0.01,Wunderground v.1.15,2016-12-08 03:12:00,
2016-12-07 22:18:00,35.7,28.9,30.03,WSW,254,1.0,1.0,76,0.00,,,0.01,Wunderground v.1.15,2016-12-08 03:18:00,